Вернуться в каталог

STARLINK-5158

АктивенСвязьVLEO
NORAD 54055·PAYLOAD·🇺🇸 United States

Запущен Oct 20, 2022 с Cape Canaveral Space Force Station

Loading…

Ближайшие Пролёты (ближайшие 24 часа)

TLE

СвежийSource: CelesTrak SupGP

Эпоха: Sep 14, 2026, 22:15 UTC

1 54055C 22136E   26257.92756944 -.00027471  00000+0 -83366-3 0  2579
2 54055  53.1589 204.0464 0001314  96.9363 277.8852 15.33559049    11

Отслеживайте STARLINK-5158 в реальном времени с AllMySat

Download on the App Store